Regional Weather Roundup
Issued by NWS

Home | Current Version | Previous Version | Graphics & Text | Print | Product List | Glossary On
Versions: 1 2 3 4 5 6 7 8 9 10 11 12 13 14 15 16 17 18 19 20 21 22 23 24 25 26 27 28 29 30 31 32 33 34 35 36 37 38 39 40 41 42 43 44 45 46 47 48 49 50
000
ASUS45 KBOU 310107
RWRCO

WEATHER ROUNDUP FOR COLORADO
NATIONAL WEATHER SERVICE DENVER/BOULDER CO
700 PM MDT SAT AUG 30 2014

NOTE: "FAIR" INDICATES FEW OR NO CLOUDS BELOW 12000 FEET WITH NO
SIGNIFICANT WEATHER AND/OR OBSTRUCTIONS TO VISIBILITY.

COZ001>005-013-030-031-310200-
...NORTHWEST COLORADO...

CITY           SKY/WX    TMP DP  RH WIND       PRES   REMARKS
CRAIG          CLOUDY    69  51  52 SE3       30.03F
HAYDEN         CLOUDY    66  45  45 NE5       30.06F
MEEKER         MOCLDY    75  42  30 CALM      30.03F
MOUNT WERNER   NOT AVBL
STEAMBOAT SPGS CLOUDY    64  47  54 SE6       30.08F
WALDEN         CLOUDY    59  43  55 W6        30.17F
$$

COZ006>008-011-310200-
...WEST CENTRAL VALLEYS...

CITY           SKY/WX    TMP DP  RH WIND       PRES   REMARKS
GRAND JUNCTION PTCLDY    81  42  25 SE3       29.91F
MONTROSE       CLOUDY    82  39  21 SW6       30.02F
EAGLE          PTCLDY    63  50  63 CALM      30.13F
RIFLE          MOCLDY    74  47  38 SE14      29.99F
DELTA          CLOUDY    84  40  20 NE7       29.96F HAZE
NUCLA          CLOUDY    81  32  17 SW9G18    30.05F
$$

COZ017>023-064>068-310200-
...SOUTHWEST COLORADO...

CITY           SKY/WX    TMP DP  RH WIND       PRES   REMARKS
DURANGO        CLOUDY    78  31  17 W7        30.11F
CORTEZ         CLEAR     79  41  25 S7        30.04F
PAGOSA SPRINGS CLOUDY    75  26  16 SW10      30.20F
TELLURIDE      CLOUDY    66  30  26 SW10G20   30.29F
WOLF CREEK PAS CLOUDY    50  32  50 SW16G30   30.50F
$$

COZ009-010-012-014-032>034-037-058>063-310200-
...CENTRAL COLORADO...

CITY           SKY/WX    TMP DP  RH WIND       PRES   REMARKS
ASPEN          CLOUDY    61  45  55 CALM      30.19F
BUENA VISTA    CLOUDY    62  40  44 W10       30.21S
COPPER MTN     LGT RAIN  45  36  70 SW20G38   30.51R
BERTHOUD PASS  MOCLDY    39  37  93 NW20G31   30.48F
COTTONWOOD PAS CLOUDY    55  37  50 NW5       30.31F
GUNNISON       CLOUDY    66  43  42 NE10      30.20F
KREMMLING      CLOUDY    61  43  51 SW3       30.17S
LEADVILLE      CLOUDY    51  39  63 N10       30.34R
MONARCH PASS   CLOUDY    46  34  61 W26G37    30.57F
SALIDA         CLOUDY    71  36  27 NW6       30.23S
SUNLIGHT       CLOUDY    50  46  87 CALM      30.39F
WILKERSON PASS NOT AVBL
$$

COZ069>075-310200-
...SAN LUIS VALLEY/SANGRE DE CRISTO MOUNTAINS...

CITY           SKY/WX    TMP DP  RH WIND       PRES   REMARKS
ALAMOSA        MOCLDY    69  40  34 NW5       30.17F
LA VETA PASS   NOT AVBL
SAGUACHE       NOT AVBL
$$

COZ035-036-038>040-310200-
...NORTHERN COLORADO FRONT RANGE...

CITY           SKY/WX    TMP DP  RH WIND       PRES   REMARKS
DENVER INTL AP LGT RAIN  74  44  34 N16G30    29.98R
DMNS CITY PARK   N/A     75  41  29 E10       29.96F
AURORA         MOCLDY    73  47  39 N6        30.00R
FRONT RANGE AP NOT AVBL
ERIE MUNI ARPT CLOUDY    76  40  27 CALM      29.94F
BOULDER MUN AP CLOUDY    77  41  27 E3        29.94F
CENTENNIAL     CLOUDY    75  40  28 VRB3      30.00S
BROOMFIELD     MOCLDY    73  46  38 E5        29.98F
FORT COLLINS   CLOUDY    75  45  33 CALM      29.95R
LONGMONT       CLOUDY    77  45  32 NW6       29.96S
$$

COZ041-046-047-076>085-087-088-310200-
...PIKES PEAK/PALMER DIVIDE AND SOUTHERN FOOTHILLS...

CITY           SKY/WX    TMP DP  RH WIND       PRES   REMARKS
COLO. SPRINGS  MOCLDY    75  47  36 CALM      30.03S
A. F. ACADEMY  MOCLDY    70  50  49 N2        30.06R
ELLICOTT       MOCLDY    74  48  39 E7        30.01F
FALCON         MOCLDY    71  48  44 CALM      30.09
FORT CARSON    MOCLDY    74  50  42 NE5       30.00S
LIMON          PTCLDY    77  40  26 SW10      29.96S
MONUMENT HILL  MOCLDY    66  45  45 SW5       30.09S
TRINIDAD       PTCLDY    84  34  16 CALM      29.99S
$$

COZ042>045-048>051-090-091-310200-
...NORTHEAST COLORADO...

CITY           SKY/WX    TMP DP  RH WIND       PRES   REMARKS
GREELEY ARPT   CLOUDY    75  45  33 W21G26    29.96R
AKRON          CLEAR     78  47  33 S9        29.89S
BURLINGTON     CLEAR     82  45  27 S8        29.89S
WRAY             N/A     83  49  30 S8        29.84S
STERLING       CLEAR     81  61  50 SW7       29.82S
HOLYOKE        CLEAR     73  55  53 SE9       29.83S
FORT MORGAN    CLEAR     77  49  38 SW6       29.89R
$$

COZ086-089-092>099-310200-
...SOUTHEAST COLORADO...

CITY           SKY/WX    TMP DP  RH WIND       PRES   REMARKS
PUEBLO         MOCLDY    88  35  15 CALM      29.90S
LA JUNTA       CLEAR     83  50  31 E7        29.86F
LAMAR          CLEAR     86  51  29 SE5       29.82F
SPRINGFIELD      N/A     82  44  26 S17G24    29.90S
$$



USA.gov is the U.S. government's official web portal to all federal, state and local government web resources and services.